Vorticity
8 9 9 9 9 9 9 9 9 9 9 9 8 8 8 8 8 7 7 7 8 9 10 11 13 13 12 11 9 7 6 6 6 7 8 8 8 9 9 9 9 9 9 9 9 9 8 8 8 7 7 7 6 6 6 6 6 6 6 6 6 6 6 6 6 6 6 6 6
9 9 9 8 9 9 9 9 9 9 9 9 9 8 8 8 8 7 7 8 8 9 10 12 13 13 12 10 8 6 6 6 7 7 8 8 8 9 9 9 9 9 9 9 9 8 8 8 7 7 7 6 6 6 6 6 6 6 6 6 6 6 6 6 6 6 6 6 6
8 8 8 8 9 9 9 9 9 9 9 9 9 8 8 8 8 8 8 8 8 10 12 13 13 12 11 8 7 6 6 6 7 7 8 8 8 9 9 9 9 9 9 9 8 8 8 7 7 7 7 6 6 6 6 6 6 6 6 6 6 6 6 6 6 6 5 5 5
8 8 8 9 9 9 9 9 9 9 9 9 9 9 8 8 8 8 8 8 9 11 13 14 13 12 10 7 6 6 6 7 7 7 8 8 8 9 9 9 9 8 8 8 8 8 7 7 7 7 7 6 6 6 6 6 6 6 6 6 6 6 6 5 5 5 5 5 5
9 9 9 9 9 9 9 9 9 9 9 9 9 8 8 8 8 7 8 9 11 12 13 14 12 10 8 6 5 5 6 7 7 8 8 8 8 8 8 8 8 7 7 7 7 7 7 7 7 7 7 6 6 6 6 6 6 6 6 6 6 6 5 5 5 5 5 4 5
8 8 9 9 9 9 9 10 10 9 9 9 9 8 8 8 8 8 9 10 11 13 13 13 11 9 7 6 5 6 6 7 7 7 8 8 8 8 8 7 7 7 7 7 7 7 7 7 7 6 6 6 6 6 6 6 6 6 6 6 6 5 5 5 4 4 4 4 5
8 8 8 9 9 9 9 10 9 9 9 9 9 8 8 8 8 8 9 10 12 13 14 13 10 8 6 5 5 6 6 6 7 7 7 7 7 7 7 6 6 6 6 6 6 6 6 6 6 6 6 6 6 6 6 6 6 6 6 6 5 5 5 5 4 4 5 5 5
8 8 9 9 9 9 9 9 9 9 9 9 9 8 8 8 8 9 10 11 13 14 13 11 9 7 6 5 5 5 6 6 6 7 7 7 6 6 6 6 6 6 6 6 6 6 6 6 6 6 6 6 6 6 6 6 6 6 6 5 5 5 5 5 5 5 5 5 6
8 9 9 9 9 9 10 9 9 9 9 9 9 8 8 8 9 9 11 12 13 13 12 10 8 6 5 5 5 5 5 6 6 6 6 6 6 5 5 5 5 5 6 6 6 6 6 6 6 6 6 6 6 6 6 6 6 6 6 6 5 5 5 5 6 6 6 6 6
8 8 9 9 10 10 10 9 9 9 9 9 8 8 8 8 9 10 12 12 12 12 12 10 7 6 5 5 5 5 5 5 5 5 5 5 5 5 5 5 5 5 5 5 6 6 6 6 6 6 6 6 6 6 7 7 6 6 6 6 6 6 6 6 6 6 6 7 7
8 9 9 9 9 9 9 9 10 9 9 8 8 8 8 9 10 11 12 12 12 12 11 8 6 5 5 4 4 4 4 4 4 4 4 4 4 4 4 4 4 4 4 4 5 5 6 6 6 6 6 6 7 7 7 7 7 7 6 6 6 6 6 6 7 7 7 7 7
8 9 9 10 9 9 9 10 9 9 9 8 8 8 9 9 10 11 11 12 13 12 10 7 6 5 4 4 4 4 4 4 4 3 3 3 3 3 3 3 3 4 4 4 4 5 5 6 6 6 6 6 7 7 7 7 7 7 7 7 7 7 7 7 7 7 7 7 8
8 9 9 10 10 10 10 9 9 9 9 8 8 8 9 9 10 11 12 13 13 11 9 7 5 4 4 3 3 3 3 3 3 3 2 2 2 2 2 3 3 3 3 3 4 4 5 5 6 6 6 6 7 7 7 7 7 7 7 7 7 7 7 7 7 7 7 8 8
8 9 9 10 10 10 9 9 9 9 8 8 8 8 9 9 10 11 12 13 12 11 8 6 5 4 3 3 3 3 3 3 2 2 2 2 2 2 2 2 2 2 2 2 3 4 4 4 5 6 6 6 7 7 7 7 7 7 7 7 7 7 7 7 7 7 7 8 8
9 9 9 10 10 10 9 9 9 9 8 8 8 9 9 10 11 12 12 13 12 10 8 5 4 3 3 3 3 3 2 2 2 2 2 2 2 2 2 2 2 2 2 2 2 3 4 4 5 6 6 7 7 7 7 7 7 7 7 7 7 7 7 7 7 7 8 8 8
9 9 10 10 10 10 9 9 9 8 8 8 8 9 9 10 11 12 13 13 12 10 7 5 4 3 2 3 2 2 2 2 2 2 2 2 1 1 1 1 1 1 2 2 2 2 3 4 4 5 6 7 7 7 7 7 7 7 7 7 7 7 7 7 7 8 8 8 8
9 9 10 10 10 9 9 9 9 8 8 8 8 9 10 10 11 12 13 12 11 9 7 5 4 3 2 2 2 2 2 2 2 2 1 1 1 1 1 1 1 1 1 1 2 2 3 4 5 6 6 7 7 7 7 7 7 7 7 7 7 7 7 7 8 8 8 8 7
9 9 10 10 10 9 9 9 9 8 8 8 8 9 10 10 11 12 12 12 11 9 7 5 4 3 2 2 2 2 2 2 2 2 2 1 1 1 1 1 1 1 1 2 2 2 3 4 5 6 6 7 7 7 7 7 7 7 7 7 7 7 7 8 8 8 8 7 7
9 9 10 10 9 9 9 9 9 8 8 8 9 9 10 11 11 12 12 12 11 9 7 5 3 3 2 2 2 2 2 2 2 2 1 1 1 1 1 1 1 1 1 2 2 2 3 4 5 6 6 7 7 7 7 7 7 7 7 7 7 7 8 8 8 8 7 7 7
9 10 10 10 9 9 9 9 9 8 8 8 9 9 10 10 11 12 12 12 10 9 7 5 3 2 2 2 2 2 2 2 2 1 1 1 1 1 1 1 1 1 2 2 2 3 4 4 5 6 7 7 7 7 7 7 7 7 7 7 7 8 8 8 8 7 7 7 7
10 10 10 9 9 9 9 9 9 8 8 9 9 9 10 10 11 12 12 12 10 9 7 5 4 3 2 2 2 2 2 2 1 1 1 1 1 1 1 1 2 2 2 2 3 3 4 5 6 6 7 8 8 8 7 7 7 7 7 7 8 8 8 8 7 7 7 7 7
10 10 9 9 9 9 9 8 8 8 8 9 9 9 10 10 11 12 12 11 10 9 8 6 4 3 2 2 2 2 2 1 1 1 1 1 1 2 2 2 2 2 3 3 4 4 5 5 6 7 7 8 8 8 7 7 7 7 7 8 8 8 8 8 7 7 6 7 7
9 9 9 9 9 9 9 8 8 8 9 9 9 9 10 10 11 11 11 11 11 10 8 6 5 4 3 2 2 2 1 1 1 1 1 1 2 2 2 2 2 3 3 4 4 4 5 6 6 7 8 8 8 8 7 7 7 7 8 8 8 8 8 7 7 7 6 7 7
9 9 9 9 9 9 8 8 8 9 9 9 9 9 10 10 10 11 11 11 11 10 8 7 6 4 3 2 2 2 1 1 1 1 2 2 2 2 2 2 3 3 4 4 4 5 5 6 7 7 8 8 8 7 7 7 7 8 8 8 8 8 7 7 7 7 7 7 6
9 9 9 9 9 8 8 8 9 9 9 9 9 9 9 10 10 11 11 11 11 10 9 8 6 5 4 3 2 2 2 1 1 1 1 2 2 2 2 3 3 4 4 4 5 5 6 7 7 8 8 8 8 7 7 7 8 8 8 8 8 7 7 7 7 7 7 6 6
9 9 9 9 8 8 8 9 9 9 9 9 9 9 9 10 10 11 11 11 11 10 10 8 7 6 5 4 3 2 2 2 2 2 2 2 2 2 3 4 4 4 4 5 5 6 6 7 8 8 8 8 7 7 7 7 8 8 8 8 8 7 7 7 7 7 6 6 6
9 9 9 8 8 8 8 8 8 8 9 9 9 9 9 9 10 10 11 11 11 11 10 9 8 7 5 4 3 3 3 2 2 2 2 2 2 3 3 4 4 5 5 5 6 6 7 8 8 8 8 8 7 7 7 8 8 8 8 8 7 7 7 7 7 6 6 6 5
9 9 8 8 8 8 8 8 8 9 9 9 9 9 9 9 10 10 11 11 11 11 10 10 9 7 6 5 5 4 3 3 3 3 3 3 3 4 4 5 5 5 6 6 6 7 8 8 8 8 8 7 7 7 8 8 8 8 8 7 7 7 7 7 7 6 6 5 5
8 8 8 8 8 8 8 8 9 9 9 9 8 8 9 9 10 10 11 11 11 11 11 10 9 8 7 6 6 5 4 4 4 3 3 4 4 5 5 5 6 6 6 6 7 8 8 9 8 8 7 7 7 8 8 9 8 8 8 7 7 7 7 7 6 6 6 5 5
8 8 8 8 8 8 8 9 8 8 8 8 8 8 9 9 10 10 10 11 11 11 11 10 9 9 8 7 6 6 6 5 4 4 4 5 5 6 6 6 6 6 6 7 7 8 8 9 8 8 7 7 8 8 8 9 8 8 7 7 7 7 7 6 6 6 5 5 5
8 8 8 8 8 8 8 8 8 8 8 8 8 8 9 9 9 10 10 10 11 11 10 10 10 9 9 8 7 7 6 6 6 6 6 6 6 6 6 6 6 6 6 7 8 8 9 8 8 7 7 7 8 8 8 8 8 7 7 7 7 7 6 6 6 6 5 5 6
8 8 8 8 8 8 8 8 8 8 8 8 8 8 9 9 9 10 10 10 10 10 10 10 10 10 9 8 8 8 7 7 7 7 7 7 6 6 6 6 6 6 7 8 8 9 8 8 7 7 7 8 8 8 8 8 7 7 7 7 7 6 6 6 6 5 6 6 6
8 8 8 8 8 8 8 8 8 8 8 8 8 8 9 9 9 9 10 10 10 10 10 10 10 10 9 9 8 8 8 8 7 7 7 7 7 6 6 6 6 7 7 8 8 8 8 7 7 7 7 8 8 8 8 7 7 7 7 7 7 6 6 6 6 6 6 6 7
8 8 8 8 8 8 8 8 8 8 8 8 8 9 9 9 9 9 9 10 10 10 10 10 10 10 9 9 9 8 8 8 8 8 7 7 7 6 6 6 7 7 8 8 8 8 7 7 7 7 7 8 8 8 7 7 7 7 7 7 6 6 6 5 6 6 6 6 7
8 8 8 8 8 8 8 8 8 8 8 8 8 8 9 9 9 9 9 9 9 10 10 10 9 9 9 9 9 9 8 8 8 8 7 7 6 6 6 7 7 8 8 8 8 7 7 6 7 7 8 8 8 7 7 7 7 7 7 6 6 6 5 5 6 6 6 7 7
8 8 8 8 8 8 8 8 8 8 8 8 8 8 8 9 9 9 9 9 9 9 9 9 9 9 9 9 9 8 8 8 8 7 7 7 6 6 7 7 8 8 8 8 7 7 6 6 7 7 8 8 7 7 7 7 7 7 7 6 6 5 5 5 5 6 6 7 8
8 8 8 8 8 8 8 8 8 8 8 8 8 8 8 8 9 9 9 9 9 9 9 9 9 9 8 8 8 8 8 8 7 7 7 7 6 7 7 8 8 8 8 7 7 6 6 6 7 7 8 7 7 7 7 7 7 7 7 6 6 5 5 5 6 6 6 7 8
8 8 8 8 8 8 8 8 8 8 8 8 8 8 8 8 8 8 8 9 9 8 8 8 8 8 8 8 8 8 7 7 7 7 6 6 7 7 7 8 8 8 7 7 6 6 6 7 7 7 7 7 7 7 7 7 7 7 6 6 5 5 5 5 6 6 7 8 8
8 8 8 8 8 8 8 8 8 8 8 8 8 8 8 8 8 8 8 8 8 8 8 8 8 8 8 8 7 7 7 7 7 7 6 6 7 7 8 8 8 7 7 6 6 6 6 7 7 7 7 7 7 7 7 7 7 7 6 6 5 5 5 6 6 7 7 8 9
8 8 8 8 8 8 8 8 8 8 8 8 8 8 8 8 8 8 8 8 8 8 8 8 8 8 8 7 7 7 7 7 7 7 7 7 7 7 8 8 7 7 6 6 6 6 7 7 7 7 7 7 7 7 7 7 7 6 6 6 6 5 5 6 6 7 8 8 9
8 8 8 8 8 8 8 8 8 8 8 8 8 8 8 8 8 8 8 8 8 8 8 8 8 7 7 7 7 7 7 7 7 7 7 7 7 8 8 7 7 6 6 6 6 6 7 7 7 7 7 7 7 7 7 7 7 6 6 6 6 6 6 5 6 7 8 8 9
Height
5799 5798 5798 5797 5796 5796 5795 5794 5794 5793 5792 5792 5791 5790 5789 5789 5788 5787 5786 5785 5784 5784 5783 5781 5780 5779 5779 5778 5777 5776 5775 5774 5773 5772 5771 5770 5769 5767 5766 5765 5764 5762 5761 5760 5759 5758 5756 5755 5754 5753 5751 5750 5749 5747 5746 5744 5743 5741 5740 5739 5737 5735 5733 5732 5730 5728 5726 5724 5722
5797 5796 5796 5795 5794 5794 5793 5793 5792 5791 5790 5790 5789 5788 5788 5787 5786 5785 5784 5784 5783 5782 5781 5780 5779 5778 5777 5776 5775 5774 5774 5773 5772 5771 5770 5769 5767 5766 5765 5764 5762 5761 5760 5759 5758 5757 5755 5754 5753 5751 5750 5749 5747 5746 5744 5743 5741 5740 5738 5737 5735 5733 5731 5729 5728 5726 5724 5722 5720
5795 5795 5794 5794 5793 5792 5792 5791 5790 5789 5789 5788 5788 5787 5786 5785 5784 5784 5783 5782 5781 5780 5779 5779 5778 5777 5776 5775 5774 5773 5773 5772 5771 5770 5769 5767 5766 5765 5764 5763 5761 5760 5759 5758 5756 5755 5754 5753 5751 5750 5749 5747 5746 5744 5743 5741 5739 5738 5736 5734 5733 5731 5729 5728 5726 5724 5722 5720 5718
5794 5793 5792 5792 5791 5790 5790 5789 5789 5788 5787 5787 5786 5785 5784 5784 5783 5782 5781 5780 5779 5779 5778 5777 5776 5775 5774 5774 5773 5772 5771 5770 5769 5769 5767 5766 5765 5764 5762 5761 5760 5759 5757 5756 5755 5754 5752 5751 5750 5749 5747 5745 5744 5743 5741 5739 5738 5736 5735 5733 5731 5729 5728 5726 5724 5722 5720 5718 5716
5792 5791 5791 5790 5789 5789 5788 5788 5787 5786 5786 5785 5784 5784 5783 5782 5781 5780 5779 5779 5778 5777 5776 5775 5775 5774 5773 5772 5772 5771 5770 5769 5768 5767 5766 5765 5764 5762 5761 5760 5759 5757 5756 5755 5754 5752 5751 5749 5748 5747 5745 5744 5743 5741 5739 5738 5736 5735 5733 5731 5729 5728 5726 5724 5722 5720 5718 5716 5714
5790 5790 5789 5788 5788 5787 5786 5786 5785 5785 5784 5783 5783 5782 5781 5780 5779 5779 5778 5777 5776 5775 5775 5774 5773 5773 5772 5771 5770 5769 5769 5768 5767 5766 5765 5764 5763 5761 5760 5759 5757 5756 5755 5754 5752 5751 5749 5748 5747 5745 5744 5743 5741 5739 5738 5736 5735 5733 5731 5730 5728 5726 5724 5722 5720 5718 5716 5714 5711
5789 5788 5787 5786 5786 5785 5785 5784 5784 5783 5782 5782 5781 5780 5779 5779 5778 5777 5776 5775 5775 5774 5774 5773 5772 5771 5770 5770 5769 5768 5768 5767 5766 5765 5764 5763 5761 5760 5759 5758 5756 5755 5754 5752 5751 5750 5748 5747 5745 5744 5743 5741 5739 5738 5736 5735 5733 5731 5730 5728 5726 5724 5722 5720 5718 5715 5713 5711 5709
5787 5786 5785 5785 5784 5784 5783 5783 5782 5781 5781 5780 5779 5779 5778 5777 5776 5775 5775 5774 5773 5773 5772 5771 5771 5770 5769 5768 5768 5767 5766 5765 5764 5764 5762 5761 5760 5759 5758 5756 5755 5754 5753 5751 5750 5749 5747 5745 5744 5743 5741 5739 5738 5736 5734 5733 5731 5730 5728 5726 5724 5722 5720 5718 5716 5713 5711 5709 5706
5785 5784 5784 5783 5782 5782 5781 5781 5780 5780 5779 5779 5778 5777 5776 5775 5775 5774 5773 5772 5772 5771 5770 5770 5769 5769 5768 5767 5766 5765 5765 5764 5763 5762 5761 5760 5759 5757 5756 5755 5754 5752 5751 5750 5748 5747 5745 5744 5743 5741 5739 5738 5736 5734 5733 5731 5729 5728 5726 5724 5722 5720 5718 5716 5714 5711 5709 5707 5704
5783 5783 5782 5781 5781 5780 5780 5779 5779 5778 5778 5777 5776 5775 5775 5774 5773 5772 5771 5771 5770 5769 5769 5768 5768 5767 5766 5766 5765 5764 5763 5762 5762 5761 5759 5759 5757 5756 5755 5754 5752 5751 5749 5748 5747 5745 5744 5742 5741 5739 5738 5736 5734 5733 5731 5729 5727 5725 5724 5722 5720 5718 5715 5714 5711 5709 5707 5704 5702
5781 5781 5780 5780 5779 5779 5778 5778 5777 5776 5776 5775 5775 5774 5773 5772 5772 5771 5770 5769 5769 5768 5767 5767 5766 5766 5765 5764 5764 5763 5762 5761 5760 5759 5758 5757 5755 5754 5753 5752 5750 5749 5748 5746 5745 5744 5742 5741 5739 5738 5736 5734 5733 5731 5729 5727 5725 5723 5721 5719 5717 5715 5713 5711 5709 5706 5704 5702 5699
5779 5779 5778 5778 5777 5777 5776 5776 5775 5775 5774 5774 5773 5772 5772 5771 5770 5769 5768 5768 5767 5766 5766 5765 5765 5764 5764 5763 5762 5761 5760 5759 5758 5757 5756 5755 5754 5753 5752 5750 5749 5748 5746 5745 5744 5742 5740 5739 5738 5736 5734 5733 5731 5729 5727 5725 5723 5721 5719 5717 5715 5713 5711 5708 5706 5704 5701 5699 5697
5777 5777 5777 5776 5776 5775 5775 5774 5774 5773 5773 5772 5771 5771 5770 5769 5768 5767 5767 5766 5765 5765 5764 5764 5763 5763 5762 5762 5761 5760 5759 5758 5757 5756 5755 5754 5752 5751 5750 5749 5748 5746 5745 5743 5742 5740 5739 5737 5736 5734 5732 5730 5729 5727 5725 5723 5721 5719 5717 5715 5713 5710 5708 5706 5704 5701 5699 5696 5694
5775 5775 5775 5774 5774 5774 5773 5773 5772 5772 5771 5770 5770 5769 5768 5767 5766 5766 5765 5764 5764 5764 5763 5762 5762 5761 5761 5760 5759 5759 5758 5757 5755 5754 5753 5752 5751 5750 5749 5748 5746 5745 5743 5742 5740 5739 5737 5736 5734 5732 5730 5729 5727 5724 5723 5721 5719 5717 5714 5713 5710 5708 5706 5704 5701 5699 5696 5694 5691
5774 5774 5773 5773 5772 5772 5772 5771 5771 5770 5769 5769 5768 5767 5766 5765 5765 5764 5764 5763 5762 5762 5761 5761 5760 5760 5759 5759 5758 5757 5756 5755 5754 5753 5752 5751 5749 5749 5747 5746 5745 5743 5742 5740 5739 5737 5736 5734 5732 5730 5729 5727 5724 5723 5720 5719 5716 5714 5712 5710 5708 5705 5703 5701 5698 5696 5694 5691 5689
5772 5772 5771 5771 5771 5770 5770 5769 5769 5768 5768 5767 5766 5765 5764 5764 5763 5762 5762 5761 5761 5760 5760 5759 5759 5758 5758 5757 5756 5755 5754 5754 5753 5751 5750 5749 5748 5747 5746 5744 5743 5742 5740 5739 5737 5735 5734 5732 5730 5729 5726 5724 5722 5720 5718 5716 5714 5712 5710 5708 5705 5703 5701 5698 5696 5693 5691 5688 5686
5770 5770 5770 5769 5769 5769 5768 5768 5767 5767 5766 5765 5764 5764 5763 5762 5761 5761 5760 5760 5759 5759 5758 5758 5757 5757 5756 5755 5755 5754 5753 5752 5751 5750 5749 5748 5746 5745 5744 5743 5741 5740 5739 5737 5735 5734 5732 5730 5728 5726 5724 5722 5720 5718 5716 5714 5712 5709 5707 5705 5703 5700 5698 5696 5693 5691 5688 5685 5683
5769 5769 5768 5768 5767 5767 5767 5766 5765 5765 5764 5764 5763 5762 5761 5760 5760 5759 5759 5758 5758 5757 5757 5756 5756 5755 5754 5754 5753 5752 5751 5750 5749 5748 5747 5746 5745 5744 5743 5741 5740 5738 5737 5735 5734 5732 5730 5728 5726 5724 5722 5720 5718 5716 5714 5711 5709 5707 5705 5703 5700 5698 5695 5693 5691 5688 5685 5683 5680
5767 5767 5766 5766 5766 5765 5765 5764 5764 5763 5763 5762 5761 5760 5760 5759 5758 5758 5757 5757 5756 5756 5755 5755 5754 5754 5753 5752 5751 5750 5749 5749 5748 5746 5745 5744 5743 5742 5741 5739 5738 5737 5735 5733 5732 5730 5728 5726 5724 5722 5720 5718 5716 5714 5711 5709 5707 5705 5703 5700 5698 5695 5693 5690 5688 5685 5683 5680 5678
5765 5765 5765 5764 5764 5764 5763 5763 5762 5761 5761 5760 5759 5759 5758 5757 5757 5756 5756 5755 5754 5754 5754 5753 5753 5752 5751 5751 5750 5749 5748 5747 5746 5745 5744 5743 5741 5740 5739 5738 5736 5735 5733 5731 5730 5728 5726 5724 5722 5720 5718 5716 5714 5711 5709 5707 5705 5703 5700 5698 5696 5693 5691 5688 5685 5683 5680 5678 5675
5764 5763 5763 5763 5762 5762 5761 5761 5760 5759 5759 5758 5758 5757 5756 5756 5755 5755 5754 5754 5753 5753 5752 5752 5751 5750 5750 5749 5748 5747 5746 5745 5744 5743 5742 5741 5740 5739 5737 5736 5734 5733 5731 5729 5728 5726 5724 5722 5720 5718 5716 5714 5711 5709 5707 5705 5703 5700 5698 5696 5694 5691 5689 5686 5683 5680 5678 5675 5672
5762 5761 5761 5761 5760 5760 5759 5759 5759 5758 5757 5757 5756 5755 5755 5754 5754 5753 5753 5752 5751 5751 5750 5750 5749 5749 5748 5747 5746 5745 5744 5744 5742 5741 5740 5739 5738 5737 5735 5734 5732 5731 5729 5728 5726 5724 5722 5720 5718 5716 5714 5711 5709 5707 5705 5703 5700 5698 5696 5694 5691 5689 5686 5684 5681 5678 5675 5672 5669
5760 5760 5759 5759 5759 5758 5758 5757 5757 5756 5756 5755 5754 5754 5753 5753 5752 5751 5751 5750 5750 5749 5749 5748 5748 5747 5746 5745 5744 5744 5743 5742 5741 5739 5739 5737 5736 5735 5733 5732 5730 5729 5727 5725 5724 5722 5720 5718 5716 5714 5712 5709 5707 5705 5703 5700 5698 5696 5694 5691 5689 5686 5684 5681 5678 5675 5673 5670 5667
5758 5758 5758 5757 5757 5757 5756 5756 5755 5754 5754 5753 5753 5752 5752 5751 5750 5750 5749 5749 5748 5748 5747 5747 5746 5745 5744 5744 5743 5742 5741 5740 5739 5738 5737 5735 5734 5733 5731 5730 5729 5727 5725 5724 5722 5720 5718 5716 5714 5712 5709 5707 5705 5703 5701 5699 5696 5694 5691 5689 5686 5684 5681 5679 5676 5673 5670 5667 5664
5756 5756 5756 5756 5755 5755 5754 5754 5754 5753 5752 5752 5751 5751 5750 5749 5749 5749 5748 5747 5747 5746 5745 5745 5744 5744 5743 5742 5741 5740 5739 5738 5737 5736 5735 5734 5733 5731 5730 5728 5726 5725 5723 5721 5720 5718 5716 5714 5712 5710 5708 5705 5703 5701 5699 5696 5694 5692 5689 5687 5684 5681 5679 5676 5674 5671 5668 5665 5662
5755 5754 5754 5754 5754 5753 5753 5752 5752 5751 5751 5750 5749 5749 5749 5748 5747 5747 5746 5746 5745 5744 5744 5743 5743 5742 5741 5740 5739 5739 5737 5736 5735 5734 5733 5732 5730 5729 5728 5726 5724 5723 5721 5719 5718 5716 5714 5712 5710 5708 5705 5703 5701 5699 5697 5694 5692 5689 5687 5684 5682 5679 5676 5674 5671 5668 5665 5662 5659
5753 5753 5753 5752 5752 5751 5751 5750 5750 5749 5749 5749 5748 5748 5747 5746 5746 5745 5745 5744 5744 5743 5742 5742 5741 5740 5739 5739 5738 5737 5736 5734 5733 5732 5731 5730 5729 5727 5726 5724 5723 5721 5719 5717 5716 5714 5712 5710 5708 5705 5704 5701 5699 5697 5694 5692 5690 5687 5685 5682 5679 5677 5674 5671 5668 5665 5662 5659 5656
5751 5751 5751 5750 5750 5750 5749 5749 5748 5748 5747 5747 5746 5746 5745 5745 5744 5744 5743 5742 5742 5741 5740 5740 5739 5738 5738 5737 5736 5735 5734 5733 5732 5730 5729 5728 5727 5725 5724 5722 5720 5719 5717 5715 5714 5712 5710 5708 5705 5704 5701 5699 5697 5694 5692 5690 5688 5685 5683 5680 5677 5674 5672 5669 5666 5663 5660 5657 5653
5750 5749 5749 5749 5749 5748 5748 5747 5747 5746 5746 5745 5745 5744 5744 5743 5743 5742 5741 5741 5740 5739 5739 5738 5737 5736 5736 5735 5734 5733 5732 5731 5730 5729 5727 5726 5725 5723 5722 5720 5719 5717 5715 5713 5711 5709 5708 5705 5703 5701 5699 5697 5695 5693 5690 5688 5685 5683 5680 5678 5675 5672 5669 5667 5664 5660 5657 5654 5651
5748 5748 5747 5747 5747 5746 5746 5745 5745 5744 5744 5744 5743 5743 5742 5742 5741 5740 5740 5739 5739 5738 5737 5736 5735 5734 5734 5733 5732 5731 5730 5729 5728 5727 5725 5724 5723 5721 5720 5718 5716 5714 5713 5711 5709 5707 5705 5703 5701 5699 5697 5695 5693 5690 5688 5686 5684 5681 5678 5675 5673 5670 5667 5664 5661 5658 5654 5651 5648
5746 5746 5746 5745 5745 5745 5744 5744 5743 5743 5742 5742 5741 5741 5740 5740 5739 5739 5738 5737 5737 5736 5735 5734 5734 5733 5732 5731 5730 5730 5729 5728 5726 5725 5724 5722 5721 5719 5718 5716 5714 5713 5711 5709 5707 5705 5703 5701 5699 5697 5695 5693 5691 5689 5686 5684 5681 5679 5676 5674 5671 5668 5665 5662 5659 5655 5652 5649 5645
5744 5744 5744 5744 5743 5743 5743 5742 5742 5741 5741 5740 5740 5739 5739 5738 5738 5737 5736 5735 5735 5734 5733 5733 5732 5731 5730 5729 5729 5728 5727 5726 5725 5724 5722 5721 5719 5718 5716 5714 5712 5710 5709 5707 5705 5703 5701 5699 5697 5695 5693 5691 5689 5686 5684 5682 5679 5677 5674 5671 5669 5665 5662 5659 5656 5653 5649 5646 5642
5743 5742 5742 5742 5742 5741 5741 5740 5740 5739 5739 5739 5738 5738 5737 5737 5736 5735 5734 5734 5733 5732 5731 5731 5730 5729 5729 5728 5727 5726 5725 5724 5723 5722 5720 5719 5717 5716 5714 5712 5710 5709 5707 5705 5703 5701 5699 5697 5695 5693 5691 5689 5687 5684 5682 5680 5677 5674 5672 5669 5666 5663 5660 5657 5654 5650 5647 5643 5640
5741 5741 5740 5740 5740 5739 5739 5739 5738 5738 5738 5737 5737 5736 5735 5735 5734 5734 5733 5732 5731 5730 5729 5729 5728 5727 5727 5726 5725 5724 5723 5722 5721 5720 5718 5717 5715 5714 5712 5710 5709 5707 5705 5703 5701 5699 5697 5695 5693 5691 5689 5687 5684 5682 5680 5677 5675 5672 5669 5667 5664 5661 5658 5654 5651 5648 5644 5641 5637
5739 5739 5739 5739 5738 5738 5738 5737 5737 5736 5736 5735 5735 5734 5734 5733 5732 5732 5731 5730 5729 5729 5728 5727 5726 5725 5725 5724 5723 5722 5721 5720 5719 5718 5716 5715 5714 5712 5710 5709 5707 5705 5703 5701 5699 5697 5695 5693 5691 5689 5687 5684 5682 5680 5678 5675 5672 5670 5667 5664 5661 5659 5655 5652 5649 5646 5642 5639 5635
5737 5737 5737 5737 5736 5736 5736 5735 5735 5734 5734 5734 5733 5733 5732 5731 5730 5730 5729 5728 5727 5727 5726 5725 5724 5724 5723 5722 5721 5720 5719 5719 5717 5716 5714 5713 5712 5710 5709 5707 5705 5703 5701 5699 5697 5695 5693 5691 5689 5687 5684 5682 5680 5678 5675 5673 5670 5667 5664 5662 5659 5656 5653 5650 5647 5643 5640 5636 5633
5735 5735 5735 5735 5735 5734 5734 5734 5733 5733 5732 5732 5731 5731 5730 5729 5729 5728 5727 5726 5726 5725 5724 5724 5723 5722 5721 5720 5719 5719 5718 5716 5715 5714 5713 5711 5709 5708 5706 5705 5703 5701 5699 5697 5695 5693 5691 5689 5687 5684 5682 5680 5678 5675 5673 5670 5668 5665 5662 5659 5656 5654 5650 5647 5644 5641 5638 5634 5630
5734 5734 5733 5733 5733 5733 5732 5732 5731 5731 5731 5730 5729 5729 5728 5728 5727 5726 5725 5724 5724 5723 5722 5722 5721 5720 5719 5719 5718 5717 5716 5714 5713 5712 5710 5709 5708 5706 5704 5703 5701 5699 5697 5695 5693 5691 5689 5687 5685 5682 5680 5678 5675 5673 5670 5668 5665 5662 5660 5657 5654 5651 5648 5645 5642 5638 5635 5632 5628
5732 5732 5732 5731 5731 5731 5730 5730 5730 5729 5729 5728 5728 5727 5726 5726 5725 5724 5724 5723 5722 5721 5721 5720 5719 5718 5718 5717 5716 5715 5714 5713 5712 5710 5709 5707 5705 5704 5702 5701 5699 5697 5695 5693 5691 5689 5687 5685 5683 5680 5678 5675 5673 5670 5668 5665 5663 5660 5657 5654 5651 5648 5645 5642 5639 5636 5632 5629 5625
5730 5730 5730 5729 5729 5729 5729 5728 5728 5727 5727 5726 5726 5725 5724 5724 5723 5722 5722 5721 5720 5719 5719 5718 5717 5716 5715 5715 5714 5713 5712 5711 5709 5708 5707 5705 5704 5702 5700 5699 5697 5695 5693 5691 5689 5687 5685 5683 5680 5678 5676 5673 5671 5668 5665 5663 5660 5658 5655 5652 5649 5646 5643 5639 5636 5633 5630 5626 5622
5728 5728 5728 5728 5728 5727 5727 5726 5726 5725 5725 5724 5724 5723 5723 5722 5721 5720 5720 5719 5718 5718 5717 5716 5715 5714 5714 5713 5712 5711 5710 5709 5708 5706 5705 5703 5702 5700 5698 5696 5694 5693 5691 5689 5687 5684 5683 5680 5678 5676 5674 5671 5668 5666 5663 5661 5658 5655 5653 5650 5647 5644 5641 5637 5634 5630 5627 5624 5620